Powrót do katalogu

COSMOS 1275 DEB

AktywnyPO
NORAD 13456·DEBRIS·🇷🇺 Russia

Wystrzelony Jun 4, 1981 z Plesetsk Cosmodrome

Loading…

Następne Przeloty (najbliższe 24 godziny)

TLE

ŚwieżeSource: Space-Track

Epoka: Sep 14, 2026, 01:34 UTC

1 13456U 81053FC  26257.06534413  .00002988  00000-0  22572-2 0  9991
2 13456  82.8276 293.1812 0147475 162.0835 227.0303 13.88812482224508

Śledź COSMOS 1275 DEB w czasie rzeczywistym z AllMySat

Download on the App Store